This is the latest recevied weather packets stored in our database for station/object IU1FIL-23. If no packets are shown the sender has not sent any weather packets the latest 10 day(s).
| Time | Temp. | Humidity | Pressure | Rain* | Wind** | Luminosity | Snow |
|---|---|---|---|---|---|---|---|
| 1777630105 | 25° C | 34% | 1026.8 hPa | - | - | - | - |
| 1777629501 | 23.89° C | 34% | 1026.7 hPa | - | - | - | - |
| 1777628889 | 23.89° C | 35% | 1026.9 hPa | - | - | - | - |
| 1777628285 | 23.33° C | 36% | 1026.7 hPa | - | - | - | - |
| 1777627681 | 22.78° C | 37% | 1026.7 hPa | - | - | - | - |
| 1777627076 | 21.67° C | 36% | 1026.7 hPa | - | - | - | - |
| 1777626472 | 22.22° C | 36% | 1026.6 hPa | - | - | - | - |
| 1777625868 | 21.67° C | 39% | 1026.7 hPa | - | - | - | - |
| 1777625264 | 21.11° C | 38% | 1026.7 hPa | - | - | - | - |
| 1777624660 | 21.11° C | 41% | 1026.6 hPa | - | - | - | - |
| 1777624050 | 20.56° C | 41% | 1026.6 hPa | - | - | - | - |
| 1777623431 | 19.44° C | 40% | 1026.3 hPa | - | - | - | - |
| 1777622827 | 19.44° C | 44% | 1026.5 hPa | - | - | - | - |
| 1777622258 | 18.89° C | 44% | 1026.6 hPa | - | - | - | - |
| 1777622223 | 18.89° C | 44% | 1026.6 hPa | - | - | - | - |
| 1777621605 | 18.33° C | 45% | 1026.5 hPa | - | - | - | - |
| 1777621001 | 17.78° C | 46% | 1026.5 hPa | - | - | - | - |
| 1777620397 | 17.22° C | 47% | 1026.4 hPa | - | - | - | - |
| 1777619793 | 16.67° C | 47% | 1026.3 hPa | - | - | - | - |
| 1777619189 | 16.67° C | 48% | 1026.3 hPa | - | - | - | - |
| 1777618584 | 15.56° C | 49% | 1026.2 hPa | - | - | - | - |
| 1777617980 | 15° C | 50% | 1026.3 hPa | - | - | - | - |
| 1777617376 | 14.44° C | 50% | 1026.2 hPa | - | - | - | - |
| 1777616772 | 14.44° C | 50% | 1026.2 hPa | - | - | - | - |
| 1777616168 | 13.89° C | 50% | 1026.1 hPa | - | - | - | - |
* Rain since midnight (hover to see other rain measurements)
** Current wind speed in m/s (hover to see current wind gust speed)